Home > Weather > Taloyoak > Past weeks

Flag for Canada Weather for the Past 2 Weeks in Taloyoak, Nunavut, Canada

Now
27 °F

Passing clouds.


Feels Like: 23 °F
Forecast: 9 / 28 °F
Wind: 3 mph from North

Location: Spence Bay Airport

Current Time: May 6, 2016 at 6:47:22 PM

Latest Report: May 6, 2016 at 6:00 PM


Visibility: 15 mi

Pressure: 30.12 "Hg

Humidity: 80%

Dew Point: 21 °F

Location of TaloyoakLocation

Historic Weather in Taloyoak — Graph

°F

Taloyoak Temperature Yesterday

Maximum temperature yesterday: 28 °F (at 11:00 AM)
Minimum temperature yesterday: 18 °F (at 4:00 AM)
Average temperature yesterday: 24 °F

High & Low Weather Summary for the Past Weeks

 TemperatureHumidityPressure
High57 °F (Apr 30, 6:00 PM)93% (Apr 30, 9:00 PM)30.66 "Hg (Apr 30, 9:00 PM)
Low-11 °F (Apr 23, 5:00 AM)33% (Apr 30, 6:00 PM)29.75 "Hg (Apr 22, 1:00 AM)
Average8 °F80%30.22 "Hg
* Reported Apr 21 5:00 PM — May 6 5:00 PM, Taloyoak, Weather by CustomWeather, © 2016

Note: Actual official high and low records may vary slightly from our data, if they occured in-between our weather recording intervals... More about our weather records

Advertising

Taloyoak Weather History for the Previous 24 Hours

Scroll right to see more
 ConditionsComfort  
Time TempWeatherWind HumidityBarometerVisibility
5:00 PM
Fri, May 6
28 °FPassing clouds.8 mph74%30.11 "Hg15 mi
4:00 PM30 °FPassing clouds.8 mph75%30.11 "Hg15 mi
3:00 PM28 °FPassing clouds.7 mph74%30.11 "Hg15 mi
2:00 PM28 °FPassing clouds.9 mph74%30.11 "Hg15 mi
1:00 PM27 °FPassing clouds.13 mph80%30.12 "Hg15 mi
12:00 PM25 °FPassing clouds.9 mph74%30.12 "Hg15 mi
11:00 AM23 °FPassing clouds.8 mph74%30.13 "Hg15 mi
10:00 AM19 °FPassing clouds.9 mph79%30.12 "Hg15 mi
9:00 AM19 °FPassing clouds.14 mph79%30.12 "Hg15 mi
8:00 AM18 °FPassing clouds.15 mph79%30.12 "Hg15 mi
7:00 AM16 °FPassing clouds.7 mph79%30.13 "Hg15 mi
6:00 AM14 °FPassing clouds.9 mph79%30.12 "Hg15 mi
5:00 AM12 °FPassing clouds.8 mph85%30.13 "Hg15 mi
4:00 AM12 °FPassing clouds.12 mph92%30.12 "Hg15 mi
2:00 AM16 °FPassing clouds.15 mph86%30.12 "Hg15 mi
1:00 AM18 °FPassing clouds.13 mph86%30.13 "Hg15 mi
12:00 AM18 °FPassing clouds.5 mph86%30.13 "Hg15 mi
11:00 PM
Thu, May 5
19 °FPassing clouds.3 mph86%30.14 "Hg15 mi
10:00 PM19 °FPassing clouds.14 mph86%30.13 "Hg15 mi
9:00 PM21 °FPassing clouds.13 mph80%30.13 "Hg15 mi
8:00 PM23 °FPassing clouds.15 mph80%30.13 "Hg15 mi
7:00 PM25 °FPassing clouds.15 mph80%30.14 "Hg15 mi
6:00 PM27 °FPassing clouds.12 mph80%30.15 "Hg15 mi
Weather by CustomWeather, © 2016

See weather overviewHow to use our weather pages